CW5619 Weather Reports


Display with metric or nautical units.
time (UTC)temp
F
wind
direction
speed
MPH
gust
MPH
rain 1hr
in
rain 24hr
in
rain mn
in
humidity
%
barometer
mb
20260505000405 72 201 2.0 12.0 0.00 0.00 0.00 36 1013.0
20260504235904 72 197 3.0 12.0 0.00 0.00 0.00 36 1013.0
20260504235404 72 205 2.0 5.0 0.00 0.00 0.00 36 1012.8
20260504234904 72 186 1.0 3.0 0.00 0.00 0.00 37 1012.5
20260504234403 73 215 1.0 3.0 0.00 0.00 0.00 37 1012.6
20260504233903 73 151 1.0 3.0 0.00 0.00 0.00 35 1012.5
20260504233404 73 65 2.0 9.0 0.00 0.00 0.00 39 1012.5
20260504232904 73 266 2.0 9.0 0.00 0.00 0.00 38 1012.8
20260504232404 73 22 2.0 9.0 0.00 0.00 0.00 39 1012.9
20260504231903 74 60 2.0 6.0 0.00 0.00 0.00 37 1013.1
20260504231404 75 346 1.0 12.0 0.00 0.00 0.00 34 1013.3
20260504230403 76 185 5.0 12.0 0.00 0.00 0.00 31 1013.3
20260504225903 78 235 6.0 13.0 0.00 0.00 0.00 25 1013.3
20260504225404 78 231 3.0 13.0 0.00 0.00 0.00 24 1013.1
20260504224904 79 233 5.0 12.0 0.00 0.00 0.00 22 1012.8
20260504224404 79 227 5.0 12.0 0.00 0.00 0.00 21 1012.7
20260504223903 79 232 5.0 10.0 0.00 0.00 0.00 20 1012.7
20260504223404 80 197 3.0 10.0 0.00 0.00 0.00 20 1012.6
20260504222903 80 259 3.0 12.0 0.00 0.00 0.00 20 1012.7
20260504222405 80 248 5.0 12.0 0.00 0.00 0.00 19 1012.6
20260504221904 81 229 3.0 9.0 0.00 0.00 0.00 19 1012.7
20260504221405 81 250 2.0 8.0 0.00 0.00 0.00 20 1012.6
20260504220903 81 224 3.0 8.0 0.00 0.00 0.00 19 1012.6
20260504220403 81 224 3.0 9.0 0.00 0.00 0.00 19 1012.6
20260504215904 81 247 3.0 9.0 0.00 0.00 0.00 19 1012.9
20260504215403 81 227 3.0 8.0 0.00 0.00 0.00 19 1013.0
20260504214904 82 231 3.0 9.0 0.00 0.00 0.00 18 1013.0
20260504214404 82 236 3.0 10.0 0.00 0.00 0.00 18 1012.8
20260504213903 82 222 3.0 10.0 0.00 0.00 0.00 18 1012.8
20260504213404 82 207 4.0 13.0 0.00 0.00 0.00 17 1012.7
20260504212903 82 205 3.0 13.0 0.00 0.00 0.00 17 1012.6
20260504212404 83 204 2.0 10.0 0.00 0.00 0.00 17 1012.6
20260504211404 83 240 3.0 9.0 0.00 0.00 0.00 18 1012.6
20260504210403 82 266 2.0 7.0 0.00 0.00 0.00 18 1012.5
20260504205903 82 218 3.0 8.0 0.00 0.00 0.00 18 1012.7
20260504205405 82 217 2.0 10.0 0.00 0.00 0.00 18 1012.8
20260504204403 83 207 2.0 6.0 0.00 0.00 0.00 18 1012.6
20260504203903 83 232 2.0 5.0 0.00 0.00 0.00 21 1012.7
20260504203403 82 90 1.0 7.0 0.00 0.00 0.00 21 1012.5
20260504202903 82 189 2.0 12.0 0.00 0.00 0.00 21 1012.5
20260504202405 83 241 6.0 12.0 0.00 0.00 0.00 20 1012.7
20260504201903 83 217 1.0 9.0 0.00 0.00 0.00 21 1012.4
20260504201404 82 271 2.0 9.0 0.00 0.00 0.00 21 1012.5
20260504200903 83 255 1.0 3.0 0.00 0.00 0.00 20 1012.6
20260504200404 82 315 1.0 6.0 0.00 0.00 0.00 19 1012.5
20260504195904 82 248 2.0 10.0 0.00 0.00 0.00 19 1012.5
20260504195404 82 254 2.0 10.0 0.00 0.00 0.00 19 1012.7
20260504194903 82 231 5.0 10.0 0.00 0.00 0.00 18 1012.8
20260504194403 81 240 3.0 9.0 0.00 0.00 0.00 18 1012.7
20260504193903 81 209 2.0 6.0 0.00 0.00 0.00 19 1012.6
20260504193404 81 205 2.0 7.0 0.00 0.00 0.00 19 1012.6
20260504192904 81 178 2.0 8.0 0.00 0.00 0.00 19 1012.5
20260504192405 81 197 2.0 8.0 0.00 0.00 0.00 19 1012.4
20260504191903 80 109 1.0 9.0 0.00 0.00 0.00 20 1012.4
20260504191403 81 113 2.0 9.0 0.00 0.00 0.00 20 1012.5
20260504190904 81 192 2.0 9.0 0.00 0.00 0.00 20 1012.5
20260504190403 81 197 3.0 9.0 0.00 0.00 0.00 20 1012.5
20260504184904 81 228 2.0 8.0 0.00 0.00 0.00 20 1012.6
20260504184404 81 245 3.0 12.0 0.00 0.00 0.00 20 1012.8
20260504183904 81 219 5.0 12.0 0.00 0.00 0.00 20 1012.9
20260504183404 82 216 4.0 7.0 0.00 0.00 0.00 20 1013.0
20260504182904 81 229 3.0 7.0 0.00 0.00 0.00 20 1013.1
20260504182403 81 164 2.0 7.0 0.00 0.00 0.00 21 1013.3
20260504181904 80 207 3.0 7.0 0.00 0.00 0.00 21 1013.4
20260504181404 80 188 2.0 8.0 0.00 0.00 0.00 22 1013.4
20260504180904 79 197 3.0 8.0 0.00 0.00 0.00 22 1013.3
20260504180404 80 205 4.0 8.0 0.00 0.00 0.00 22 1013.4
20260504175904 80 213 3.0 9.0 0.00 0.00 0.00 21 1013.4
20260504175405 80 226 3.0 9.0 0.00 0.00 0.00 21 1013.4
20260504174404 80 219 3.0 10.0 0.00 0.00 0.00 21 1013.2
20260504173404 80 240 5.0 12.0 0.00 0.00 0.00 23 1013.3
20260504172903 80 227 6.0 10.0 0.00 0.00 0.00 23 1013.4
20260504172403 80 213 4.0 10.0 0.00 0.00 0.00 23 1013.4
20260504171904 80 196 2.0 9.0 0.00 0.00 0.00 23 1013.4
20260504171405 80 236 5.0 9.0 0.00 0.00 0.00 22 1013.4
20260504170903 79 145 3.0 6.0 0.00 0.00 0.00 25 1013.4
20260504170404 80 168 2.0 8.0 0.00 0.00 0.00 25 1013.4
20260504150404 75 117 3.0 9.0 0.00 0.00 0.00 31 1013.3
20260504140903 72 166 1.0 6.0 0.00 0.00 0.00 33 1013.2
20260504130404 70 117 2.0 3.0 0.00 0.00 0.00 34 1012.4
20260504110404 71 101 0.0 2.0 0.00 0.00 0.00 34 1011.7
20260504100404 72 195 1.0 3.0 0.00 0.00 0.00 33 1011.9
20260504081904 71 104 0.0 2.0 0.00 0.00 0.00 31 1011.6
20260504081404 72 121 0.0 2.0 0.00 0.00 0.00 30 1011.6
20260504080904 72 129 0.0 2.0 0.00 0.00 0.00 31 1011.7
20260504080404 72 164 0.0 2.0 0.00 0.00 0.00 32 1011.6
20260504070404 75 216 1.0 3.0 0.00 0.00 0.00 28 1011.9
20260504045904 77 216 3.0 10.0 0.00 0.00 0.00 27 1012.3
20260504045404 77 209 4.0 9.0 0.00 0.00 0.00 27 1012.4
20260504044403 77 216 3.0 9.0 0.00 0.00 0.00 27 1012.3
20260504042904 78 210 5.0 12.0 0.00 0.00 0.00 26 1012.2
20260504042405 78 216 3.0 9.0 0.00 0.00 0.00 25 1012.1
20260504041904 78 202 4.0 16.0 0.00 0.00 0.00 24 1012.0
20260504041403 78 211 5.0 16.0 0.00 0.00 0.00 24 1012.2
20260504040903 78 218 5.0 16.0 0.00 0.00 0.00 24 1012.1
20260504035904 78 216 6.0 13.0 0.00 0.00 0.00 23 1011.7
20260504035403 79 219 6.0 14.0 0.00 0.00 0.00 22 1011.6
20260504034904 79 219 5.0 14.0 0.00 0.00 0.00 22 1011.3
20260504034403 79 216 6.0 17.0 0.00 0.00 0.00 21 1011.4
20260504033904 79 201 5.0 17.0 0.00 0.00 0.00 20 1011.1
20260504033404 79 221 6.0 16.0 0.00 0.00 0.00 19 1010.9
20260504032904 80 216 6.0 12.0 0.00 0.00 0.00 19 1010.9
20260504031404 80 172 4.0 10.0 0.00 0.00 0.00 18 1010.8
20260504030404 81 198 3.0 12.0 0.00 0.00 0.00 17 1010.5
20260504025904 81 206 5.0 12.0 0.00 0.00 0.00 17 1010.4
20260504025404 81 196 5.0 10.0 0.00 0.00 0.00 16 1010.2
20260504024904 81 214 3.0 9.0 0.00 0.00 0.00 16 1010.1
20260504024405 82 227 3.0 13.0 0.00 0.00 0.00 15 1010.0
20260504023904 82 225 2.0 13.0 0.00 0.00 0.00 15 1009.9
20260504023404 82 235 4.0 13.0 0.00 0.00 0.00 15 1009.7
20260504022904 82 216 6.0 12.0 0.00 0.00 0.00 14 1009.7
20260504022404 83 236 3.0 10.0 0.00 0.00 0.00 14 1009.6
20260504021904 83 214 2.0 8.0 0.00 0.00 0.00 14 1009.5
20260504021403 83 227 3.0 8.0 0.00 0.00 0.00 14 1009.5
20260504020904 83 215 4.0 9.0 0.00 0.00 0.00 13 1009.5
20260504015904 84 241 5.0 12.0 0.00 0.00 0.00 13 1009.3
20260504015404 84 231 2.0 12.0 0.00 0.00 0.00 13 1009.2
20260504014903 84 224 4.0 14.0 0.00 0.00 0.00 12 1009.1
20260504014403 85 238 6.0 14.0 0.00 0.00 0.00 12 1009.0
20260504013904 85 222 5.0 12.0 0.00 0.00 0.00 12 1009.1
20260504013405 85 223 2.0 9.0 0.00 0.00 0.00 12 1009.1
20260504012904 86 231 3.0 14.0 0.00 0.00 0.00 12 1008.9
20260504012404 86 226 6.0 14.0 0.00 0.00 0.00 12 1008.8
20260504011904 86 230 6.0 13.0 0.00 0.00 0.00 11 1008.6
20260504011403 86 238 6.0 15.0 0.00 0.00 0.00 11 1008.8
20260504010404 87 222 6.0 15.0 0.00 0.00 0.00 11 1009.2
20260504005904 87 222 6.0 16.0 0.00 0.00 0.00 11 1009.1
20260504004403 88 233 5.0 15.0 0.00 0.00 0.00 11 1009.1
20260504003404 89 220 5.0 12.0 0.00 0.00 0.00 11 1009.1
20260504002404 89 235 7.0 14.0 0.00 0.00 0.00 11 1009.1
20260504001905 89 225 7.0 14.0 0.00 0.00 0.00 10 1009.0
20260504001404 89 226 8.0 18.0 0.00 0.00 0.00 10 1009.0
20260504000904 89 230 9.0 18.0 0.00 0.00 0.00 10 1009.0